When you browse on this site, cookies collect data to enhance your experience and personalize the content and advertising you see.
Visit our Privacy Policy to learn more. By continuing to use the site, you agree to this use of cookies and data.
  • In Latvia
  • List of Countries
  • For 7 days
  • Water Temperature
  • Satellite Maps
  • Weather Map
  • Weather Widgets
  • user-avatar
    Login

    Hourly Weather Kamennomostskiy

    Today, 16 December, Sunday

    Time Temperature Precipitation Wind Pressure Humidity
    00:00 +4°C° 0.3 mm 1 mps 731 mmHg 90%
    01:00 +4°C° 0.3 mm 1 mps 731 mmHg 91%
    02:00 +4°C° 0.3 mm 1 mps 731 mmHg 92%
    03:00 +4°C° 0 mm 1 mps 731 mmHg 93%
    04:00 +4°C° 0.2 mm 1 mps 731 mmHg 93%
    05:00 +4°C° 0.2 mm 1 mps 731 mmHg 93%
    06:00 +4°C° 0.2 mm 1 mps 731 mmHg 93%
    07:00 +3°C° 0 mm 2 mps 731 mmHg 92%
    08:00 +3°C° 0 mm 2 mps 731 mmHg 91%
    09:00 +3°C° 0 mm 2 mps 731 mmHg 89%
    10:00 +4°C° 0 mm 2 mps 731 mmHg 86%
    11:00 +5°C° 0 mm 2 mps 731 mmHg 83%
    12:00 +6°C° 0 mm 2 mps 731 mmHg 80%
    13:00 +6°C° 0 mm 2 mps 730 mmHg 80%
    14:00 +5°C° 0 mm 3 mps 730 mmHg 81%
    15:00 +5°C° 0 mm 3 mps 730 mmHg 82%
    16:00 +4°C° 0 mm 3 mps 730 mmHg 84%
    17:00 +3°C° 0 mm 3 mps 729 mmHg 86%
    18:00 +2°C° 0 mm 3 mps 729 mmHg 89%
    19:00 +2°C° 0 mm 3 mps 729 mmHg 88%
    20:00 +2°C° 0 mm 3 mps 729 mmHg 87%
    21:00 +2°C° 0 mm 3 mps 729 mmHg 86%
    22:00 +1°C° 0 mm 3 mps 729 mmHg 85%
    23:00 +1°C° 0 mm 3 mps 729 mmHg 85%

    Tomorrow, 17 December, Monday

    Time Temperature Precipitation Wind Pressure Humidity
    00:00 +1°C° 0 mm 3 mps 728 mmHg 84%
    01:00 +1°C° 0 mm 3 mps 728 mmHg 83%
    02:00 +1°C° 0 mm 3 mps 728 mmHg 82%
    03:00 +1°C° 0 mm 3 mps 728 mmHg 81%
    04:00 +1°C° 0 mm 3 mps 728 mmHg 80%
    05:00 +1°C° 0 mm 3 mps 727 mmHg 80%
    06:00 +1°C° 0 mm 3 mps 727 mmHg 79%
    07:00 +2°C° 0 mm 2 mps 727 mmHg 78%
    08:00 +3°C° 0 mm 2 mps 727 mmHg 76%
    09:00 +3°C° 0 mm 2 mps 727 mmHg 75%
    10:00 +4°C° 0 mm 2 mps 727 mmHg 72%
    11:00 +6°C° 0 mm 2 mps 727 mmHg 69%
    12:00 +7°C° 0 mm 2 mps 726 mmHg 67%
    13:00 +7°C° 0 mm 2 mps 726 mmHg 69%
    14:00 +7°C° 0 mm 2 mps 726 mmHg 71%
    15:00 +6°C° 0 mm 2 mps 726 mmHg 73%
    16:00 +5°C° 0 mm 2 mps 726 mmHg 76%
    17:00 +4°C° 0 mm 2 mps 726 mmHg 79%
    18:00 +3°C° 0 mm 2 mps 726 mmHg 82%
    19:00 +3°C° 0.1 mm 2 mps 726 mmHg 82%
    20:00 +3°C° 0.1 mm 2 mps 726 mmHg 82%
    21:00 +3°C° 0.1 mm 2 mps 726 mmHg 82%
    22:00 +3°C° 0 mm 2 mps 726 mmHg 82%
    23:00 +3°C° 0 mm 2 mps 726 mmHg 82%

    Day after tomorrow, 18 December, Tuesday

    Time Temperature Precipitation Wind Pressure Humidity
    00:00 +3°C° 0 mm 2 mps 726 mmHg 82%
    01:00 +3°C° 0 mm 2 mps 726 mmHg 82%
    02:00 +4°C° 0 mm 1 mps 726 mmHg 82%
    03:00 +4°C° 0 mm 1 mps 726 mmHg 82%
    04:00 +4°C° 0 mm 1 mps 726 mmHg 82%
    05:00 +4°C° 0 mm 1 mps 726 mmHg 82%
    06:00 +4°C° 0 mm 1 mps 726 mmHg 82%
    07:00 +4°C° 0 mm 1 mps 726 mmHg 81%
    08:00 +5°C° 0 mm 1 mps 726 mmHg 80%
    09:00 +5°C° 0 mm 1 mps 727 mmHg 79%
    10:00 +6°C° 0 mm 1 mps 727 mmHg 75%
    11:00 +8°C° 0 mm 1 mps 727 mmHg 72%
    12:00 +9°C° 0 mm 1 mps 727 mmHg 68%
    13:00 +9°C° 0 mm 1 mps 727 mmHg 70%
    14:00 +9°C° 0 mm 1 mps 727 mmHg 71%
    15:00 +9°C° 0 mm 1 mps 727 mmHg 73%
    16:00 +8°C° 0 mm 1 mps 727 mmHg 77%
    17:00 +7°C° 0 mm 1 mps 727 mmHg 81%
    18:00 +5°C° 0 mm 1 mps 727 mmHg 86%
    19:00 +6°C° 0.1 mm 1 mps 727 mmHg 85%
    20:00 +6°C° 0.1 mm 1 mps 727 mmHg 85%
    21:00 +6°C° 0.1 mm 1 mps 727 mmHg 85%
    22:00 +6°C° 0.2 mm 1 mps 727 mmHg 84%
    23:00 +6°C° 0.2 mm 1 mps 727 mmHg 84%

    19 December, Wednesday

    Time Temperature Precipitation Wind Pressure Humidity
    00:00 +6°C° 0.2 mm 1 mps 727 mmHg 84%
    01:00 +6°C° 0.1 mm 1 mps 727 mmHg 84%
    02:00 +6°C° 0.1 mm 1 mps 727 mmHg 84%
    03:00 +6°C° 0.1 mm 1 mps 727 mmHg 84%
    04:00 +6°C° 0.1 mm 1 mps 727 mmHg 84%
    05:00 +6°C° 0.1 mm 1 mps 727 mmHg 84%
    06:00 +5°C° 0.1 mm 1 mps 726 mmHg 84%
    07:00 +6°C° 0.1 mm 1 mps 726 mmHg 84%
    08:00 +6°C° 0.1 mm 1 mps 727 mmHg 83%
    09:00 +6°C° 0.1 mm 1 mps 727 mmHg 83%
    10:00 +7°C° 0 mm 1 mps 726 mmHg 79%
    11:00 +9°C° 0 mm 1 mps 726 mmHg 75%
    12:00 +10°C° 0 mm 1 mps 726 mmHg 71%
    13:00 +10°C° 0 mm 1 mps 726 mmHg 72%
    14:00 +9°C° 0 mm 2 mps 726 mmHg 73%
    15:00 +9°C° 0 mm 2 mps 725 mmHg 74%
    16:00 +8°C° 0.1 mm 2 mps 725 mmHg 77%
    17:00 +7°C° 0.1 mm 2 mps 725 mmHg 79%
    18:00 +6°C° 0.1 mm 2 mps 725 mmHg 82%
    19:00 +6°C° 0.3 mm 2 mps 725 mmHg 83%
    20:00 +6°C° 0.3 mm 2 mps 725 mmHg 83%
    21:00 +6°C° 0.3 mm 2 mps 725 mmHg 83%
    22:00 +6°C° 0.3 mm 2 mps 725 mmHg 84%
    23:00 +6°C° 0.3 mm 2 mps 725 mmHg 85%

    20 December, Thursday

    Time Temperature Precipitation Wind Pressure Humidity
    00:00 +6°C° 0.3 mm 2 mps 725 mmHg 86%
    01:00 +7°C° 0.3 mm 1 mps 725 mmHg 86%
    02:00 +6°C° 0.3 mm 1 mps 725 mmHg 87%
    03:00 +6°C° 0.3 mm 1 mps 725 mmHg 87%
    04:00 +6°C° 0.2 mm 1 mps 725 mmHg 88%
    05:00 +6°C° 0.2 mm 1 mps 726 mmHg 89%
    06:00 +6°C° 0.2 mm 1 mps 726 mmHg 89%
    07:00 +6°C° 0.2 mm 1 mps 726 mmHg 89%
    08:00 +6°C° 0.2 mm 1 mps 726 mmHg 88%
    09:00 +6°C° 0.2 mm 1 mps 726 mmHg 88%
    10:00 +7°C° 0.3 mm 1 mps 727 mmHg 86%
    11:00 +8°C° 0.3 mm 1 mps 727 mmHg 85%
    12:00 +8°C° 0.3 mm 1 mps 727 mmHg 84%
    13:00 +8°C° 0.3 mm 1 mps 727 mmHg 85%
    14:00 +8°C° 0.3 mm 1 mps 727 mmHg 86%
    15:00 +8°C° 0.3 mm 1 mps 727 mmHg 87%
    16:00 +8°C° 0.3 mm 1 mps 727 mmHg 88%
    17:00 +7°C° 0.3 mm 1 mps 728 mmHg 90%
    18:00 +7°C° 0.3 mm 1 mps 728 mmHg 92%
    19:00 +7°C° 0.4 mm 1 mps 728 mmHg 92%
    20:00 +7°C° 0.4 mm 1 mps 728 mmHg 92%
    21:00 +7°C° 0.4 mm 1 mps 729 mmHg 92%
    22:00 +7°C° 0.6 mm 1 mps 729 mmHg 93%
    23:00 +7°C° 0.6 mm 1 mps 729 mmHg 93%

    21 December, Friday

    Time Temperature Precipitation Wind Pressure Humidity
    00:00 +7°C° 0.6 mm 1 mps 729 mmHg 93%
    01:00 +7°C° 0.6 mm 1 mps 729 mmHg 94%
    02:00 +7°C° 0.6 mm 1 mps 729 mmHg 94%
    03:00 +7°C° 0.6 mm 1 mps 729 mmHg 94%
    04:00 +6°C° 0.5 mm 0 mps 730 mmHg 94%
    05:00 +6°C° 0.5 mm 0 mps 730 mmHg 94%
    06:00 +5°C° 0.5 mm 0 mps 730 mmHg 95%
    07:00 +5°C° 0.4 mm 0 mps 730 mmHg 95%
    08:00 +5°C° 0.4 mm 0 mps 730 mmHg 95%
    09:00 +5°C° 0.4 mm 0 mps 730 mmHg 95%
    10:00 +7°C° 0.3 mm 1 mps 730 mmHg 93%
    11:00 +7°C° 0.3 mm 1 mps 730 mmHg 91%
    12:00 +8°C° 0.3 mm 1 mps 730 mmHg 89%
    13:00 +8°C° 0.2 mm 1 mps 730 mmHg 88%
    14:00 +8°C° 0.2 mm 1 mps 730 mmHg 88%
    15:00 +8°C° 0.2 mm 1 mps 730 mmHg 88%
    16:00 +7°C° 0.2 mm 1 mps 730 mmHg 90%
    17:00 +7°C° 0.2 mm 1 mps 730 mmHg 92%
    18:00 +6°C° 0.2 mm 1 mps 730 mmHg 94%
    19:00 +5°C° 0.2 mm 0 mps 730 mmHg 95%
    20:00 +5°C° 0.2 mm 0 mps 730 mmHg 95%
    21:00 +5°C° 0.2 mm 0 mps 730 mmHg 95%
    22:00 +4°C° 0.1 mm 0 mps 729 mmHg 95%
    23:00 +4°C° 0.1 mm 0 mps 729 mmHg 95%
    Show more